Weather History for Jackson, KY

Change the Weather History Date:

Saturday, December 7, 2013

  Actual Average Record
Temperature  
Mean Temperature 30 °F 40 °F  
Max Temperature 32 °F 48 °F 72 °F (2004)
Min Temperature 28 °F 32 °F 5 °F (1984)
Degree Days  
Heating Degree Days 35 25  
Month to date heating degree days 130 166  
Since 1 July heating degree days 1017 966  
Cooling Degree Days 0 0  
Month to date cooling degree days 0 0  
Year to date cooling degree days 1069 1154  
Moisture  
Dew Point 26 °F    
Average Humidity 85    
Maximum Humidity 92    
Minimum Humidity 78    
Precipitation  
Precipitation T in 0.14 in 1.12 in (1998)
Month to date precipitation 3.45 0.98  
Year to date precipitation 53.08 45.14  
Snow  
Snow T in 0.10 in - ()
Month to date snowfall T 0.7  
Since 1 July snowfall 2.9 1.3  
Snow Depth 0.00 in    
Sea Level Pressure  
Sea Level Pressure 30.45 in    
Wind  
Wind Speed 5 mph (NE)    
Max Wind Speed 8 mph    
Max Gust Speed 14 mph    
Visibility 8 miles    
Events Snow    
T = Trace of Precipitation, MM = Missing Value Source: NWS Daily Summary

Daily Weather History Graph

Daily Weather History Graph

Search for Another Location

Airport:

Trip Planner

Search our weather history database for the weather conditions in past years. The results will help you decide how hot, cold, wet, or windy it might be!

Date:

Astronomy

Dec. 07, 2013 Rise Set
Actual Time 7:34 AM EST 5:14 PM EST
Civil Twilight 7:05 AM EST 5:43 PM EST
Nautical Twilight 6:33 AM EST 6:16 PM EST
Astronomical Twilight 6:01 AM EST 6:48 PM EST
Moon 11:23 AM EST (12/7) 10:50 PM EST (12/7)
Length of Visible Light 10h 37m
Length of Day
9h 39m
Waxing Crescent, 29% of the Moon is Illuminated
Dec 7
Waxing Crescent
Dec 9
First Quarter
Dec 17
Full
Dec 25
Last Quarter
Jan 1
New

Hourly Weather History & Observations

Time (EST) Temp. Windchill Dew Point Humidity Pressure Visibility Wind Dir Wind Speed Gust Speed Precip Events Conditions
12:53 AM 30.9 °F 27.5 °F 28.9 °F 92% 30.30 in 7.0 mi Variable 3.5 mph - N/A   Overcast
1:51 AM 30.2 °F 24.3 °F 28.4 °F 93% 30.29 in 8.0 mi NNE 5.8 mph - N/A   Overcast
1:53 AM 30.0 °F 24.1 °F 28.0 °F 92% 30.32 in 8.0 mi NNE 5.8 mph - N/A   Overcast
2:53 AM 30.0 °F 26.5 °F 28.9 °F 96% 30.35 in 5.0 mi NE 3.5 mph - N/A   Overcast
3:28 AM 30.0 °F - 28.0 °F 92% 30.33 in 4.0 mi Calm Calm - N/A   Overcast
3:53 AM 30.0 °F 25.2 °F 28.0 °F 92% 30.37 in 4.0 mi NE 4.6 mph - N/A   Overcast
4:53 AM 30.0 °F 26.5 °F 28.0 °F 92% 30.38 in 3.0 mi Variable 3.5 mph - N/A   Overcast
5:53 AM 30.0 °F 26.5 °F 28.0 °F 92% 30.41 in 3.0 mi Variable 3.5 mph - N/A   Overcast
6:11 AM 30.0 °F 26.5 °F 27.0 °F 88% 30.38 in 8.0 mi Variable 3.5 mph - N/A   Overcast
6:37 AM 30.0 °F 26.5 °F 27.0 °F 88% 30.39 in 7.0 mi NE 3.5 mph - N/A   Overcast
6:50 AM 30.2 °F 25.4 °F 26.6 °F 86% 30.41 in 9.0 mi Variable 4.6 mph - N/A   Overcast
6:53 AM 30.0 °F 23.2 °F 27.0 °F 88% 30.44 in 9.0 mi NNE 6.9 mph - N/A   Overcast
7:53 AM 28.9 °F 25.2 °F 27.0 °F 92% 30.47 in 8.0 mi Variable 3.5 mph - N/A   Overcast
8:23 AM 28.9 °F 23.9 °F 27.0 °F 92% 30.44 in 2.0 mi NE 4.6 mph - 0.00 in Snow Light Snow
8:44 AM 28.9 °F 22.8 °F 27.0 °F 92% 30.45 in 5.0 mi Variable 5.8 mph - 0.00 in Snow Light Snow
8:53 AM 28.9 °F 22.8 °F 26.1 °F 89% 30.49 in 9.0 mi NNE 5.8 mph - 0.00 in   Overcast
9:53 AM 28.9 °F 23.9 °F 26.1 °F 89% 30.52 in 10.0 mi NE 4.6 mph - N/A   Overcast
10:09 AM 30.0 °F - 26.1 °F 85% 30.48 in 10.0 mi Calm Calm - N/A   Overcast
10:39 AM 30.0 °F - 26.1 °F 85% 30.48 in 10.0 mi Calm Calm - N/A   Overcast
10:53 AM 30.0 °F 24.1 °F 26.1 °F 85% 30.52 in 10.0 mi NE 5.8 mph - N/A   Overcast
11:53 AM 30.0 °F 25.2 °F 26.1 °F 85% 30.51 in 10.0 mi NE 4.6 mph - N/A   Overcast
12:42 PM 30.0 °F 26.5 °F 26.1 °F 85% 30.46 in 10.0 mi Variable 3.5 mph - N/A   Overcast
12:53 PM 30.9 °F 27.5 °F 26.1 °F 82% 30.50 in 10.0 mi ENE 3.5 mph - N/A   Overcast
1:53 PM 30.9 °F 27.5 °F 26.1 °F 82% 30.49 in 10.0 mi Variable 3.5 mph - N/A   Overcast
2:53 PM 30.9 °F 27.5 °F 26.1 °F 82% 30.48 in 10.0 mi NNE 3.5 mph - N/A   Overcast
3:53 PM 30.9 °F 24.3 °F 26.1 °F 82% 30.48 in 10.0 mi NE 6.9 mph - N/A   Overcast
4:53 PM 30.0 °F 25.2 °F 25.0 °F 82% 30.50 in 10.0 mi Variable 4.6 mph - N/A   Overcast
5:53 PM 28.9 °F - 24.1 °F 82% 30.52 in 10.0 mi Calm Calm - N/A   Overcast
6:53 PM 28.0 °F 22.8 °F 24.1 °F 85% 30.52 in 10.0 mi Variable 4.6 mph - N/A   Overcast
7:53 PM 28.0 °F 22.8 °F 23.0 °F 81% 30.52 in 10.0 mi ENE 4.6 mph - N/A   Overcast
8:53 PM 28.0 °F 20.8 °F 24.1 °F 85% 30.51 in 8.0 mi Variable 6.9 mph - N/A   Overcast
9:53 PM 28.0 °F 20.8 °F 23.0 °F 81% 30.49 in 10.0 mi Variable 6.9 mph - N/A   Overcast
10:53 PM 28.0 °F 21.7 °F 23.0 °F 81% 30.49 in 10.0 mi NE 5.8 mph - N/A   Overcast
11:08 PM 28.0 °F 24.2 °F 23.0 °F 81% 30.43 in 10.0 mi Variable 3.5 mph - N/A   Overcast
11:53 PM 28.0 °F 24.2 °F 23.0 °F 81% 30.48 in 10.0 mi Variable 3.5 mph - N/A   Overcast